Location: Lucerne Valley
(34.4439°N, 116.9669°E)
Time: 09:52:08
(UTC-07:00)

Envisat - Pass Details

Date: 09 October 2017
Orbit: 764 x 766 km, 98.2° (Epoch: 18 October)

Event Time Altitude Azimuth Distance (km) Brightness Sun altitude
Exits shadow 05:22:56 32° 332° (NNW) 1,282 4.4 -33.0°
Drops below altitude 10° 05:25:42 10° 342° (NNW) 2,304 5.8 -33.5°
Sets 05:28:02 0° 345° (NNW) 3,234 6.6 -34.0°
